Погода в Покрове

Россия / Владимирская область     56°29′13″N   39°09′35″E
темп.,
°C
ветер,
м/с
пор.,
м/с
влажн.,
%
обл.,
%
осадки,
мм/ч
давл.,
гПа
погр.,
м
21 апреля, ср
ср2100:00+3в61397100 2.1 1014868
03:00+3в71497100 4.8 1010768
06:00+1в71598100 2.9 1005576
09:00+4вюв311100100 8.9 1000506
12:00+2ююз51098100 0.3 1004497
15:00+3ююз5891100 0.3 1007916
18:00+3ююз4892100 0.0 1008501
21:00+3ююз4895100 0.1 1010308
22 апреля, чт
чт2200:00+3ююз4896100 0.0 1011241
03:00+3ююз4896100 0.0 1012268
06:00+3ю4897100 0.1 1013349
09:00+6ююз6985100 0.1 1014645
12:00+8ююз6978100 0.0 10151034
15:00+10ююз71070100 0.1 10151267
18:00+9ю6107810 0.1 1015745
21:00+7ююв5118834 0.1 1016257
23 апреля, пт
пт2300:00+7ююв6129175 0.0 1015343
03:00+6ю512955 0.0 1015288
06:00+5ю512955 0.0 1015296
09:00+11ю7137399 0.0 1015658
12:00+15ю8135686 0.2 10142007
15:00+15ю8125292 0.4 10142090
18:00+13ю71259100 0.3 10131061
21:00+10ююв5147055 0.4 1013465
24 апреля, сб
сб2400:00+9ююв6167787 0.1 1011509
03:00+7юв51384100 0.1 1009447
06:00+7юв61384100 0.1 1007607
09:00+6юз4892100 1.1 1006846
12:00+2з4899100 2.6 1008313
15:00+4з3696100 2.9 1008555
18:00+5з3581100 0.1 1007580
21:00+3зюз3386100 0.4 100754
25 апреля, вс
вс2500:00+1зюз39895 0.0 1007176
03:000зюз410905 0.1 1007216
06:000зюз511915 0.0 1007346
09:00+4з687032 0.0 10071073
12:00+6з796095 0.4 10081651
15:00+6з795979 0.8 10081655
18:00+5з586537 0.2 10091214
21:00+1юз39838 0.2 1010225